Other Surface Observations
Issued by NWS Upton, NY

Home | Current Version | Previous Version | Text Only | Print | Product List | Glossary On
Versions: 1 2 3 4 5 6 7 8 9 10 11 12 13 14 15 16 17 18 19 20 21 22 23 24 25 26 27 28 29 30 31 32 33 34 35 36 37 38 39 40 41 42 43 44 45 46 47 48 49 50
000
SXUS51 KOKX 152157
OSOOKX
New York City Metropolitan Area Weather Roundup
National Weather Service New York NY
600 PM EDT MON JUL 15 2019

CITY           SKY/WX    TMP DP  RH WIND       PRES   REMARKS
Central Park   FAIR      84  58  40 VRB3      30.03F
LaGuardia Arpt PTSUNNY   86  56  35 NW10      29.99S
Kennedy Intl   NOT AVBL
Newark Liberty PTSUNNY   86  58  38 W10       30.00F
Teterboro Arpt FAIR      85  58  39 W8        29.99S
Bronx Lehman C   N/A     86  55  35 NW6         N/A
Queens College   N/A     82  63  51 S10         N/A
Breezy Point     N/A     75 N/A N/A S12         N/A
Brooklyn Coll    N/A    N/A N/A N/A SE12        N/A
Staten Island    N/A     86  59  39 W7          N/A

>>>>>>>>>>>>>>>>>>>>>>>>>>>>>>>>> KEY <<<<<<<<<<<<<<<<<<<<<<<<<<<<<<<
> SKY/WX - Sky Condition/Present    : R : WCI - Wind Chill Index    <
>          Weather                  : E : VSB - Visibility in Miles <
> TMP    - Temperature in Deg F     : M : HX  - Heat Index          <
> DP     - Dew Point Temperature    : A : TC  - Temperature in      <
> RH     - Relative Humidity        : R :       Celsius             <
> WIND   - Direction/Speed (mph)    : K : VRB - Variable Wind Dir   <
> PRES   - Pressure (in Hg)         : S :                           <
>>>>>>>>>>>>>>>>>>>>>>>>>>>>>>>>> KEY <<<<<<<<<<<<<<<<<<<<<<<<<<<<<<<



USA.gov is the U.S. government's official web portal to all federal, state and local government web resources and services.